Weather in Staraya Tushka

Russia / Kirov Oblast     56°44′50″N   50°30′52″E
temp.,
°C
wind,
m/s
gust,
m/s
humid.,
%
clouds,
%
prec.,
mm/h
press.,
hPa
HPBL,
m
27 january, thu
thu2700:00−15sw2497100 0.1 101788
03:00−16sw2597100 0.2 101796
06:00−16sw379689 0.1 1018181
09:00−18ssw389779 0.1 1019132
12:00−14sw469398 0.1 1020251
15:00−14ssw369595 0.2 1020230
18:00−19s369926 0.0 102281
21:00−18s379622 0.0 1021138
28 january, fri
fri2800:00−21s3510055 0.0 102159
03:00−19s3610092 0.0 102182
06:00−16sse379883 0.1 1021106
09:00−13s389669 0.1 1021201
12:00−10s489571 0.0 1020226
15:00−10sse3795100 0.0 1020205
18:00−10se369698 0.0 1019132
21:00−10se3995100 0.0 1018193
29 january, sat
sat2900:00−10se41094100 0.0 1018237
03:00−10se41093100 0.0 1016268
06:00−11se379782 0.3 1015151
09:00−13se279881 0.3 1015131
12:00−10sse4893100 0.0 1013260
15:00−9sse4894100 0.0 1012301
18:00−10sse4895100 0.0 1011242
21:00−11sse4995100 0.0 1010231
30 january, sun
sun3000:00−10sse4995100 0.5 1008290
03:00−9sse4895100 0.9 1007260
06:00−10sse489572 0.2 1005225
09:00−10sse4996100 0.3 1004230
12:00−6se4995100 0.3 1002282
15:00−5sse4896100 0.9 1001363
18:00−5sse499699 0.3 1001283
21:00−4s5109395 0.4 1001376
31 january, mon
mon3100:00−6s51192100 0.0 1002448
03:00−8sse51293100 0.1 1003437
06:00−7sse61294100 0.1 1002521
09:00−6sse61494100 0.4 1003545
12:00−3sse71495100 0.5 1002663
15:00−1sse71497100 1.9 1001810
18:000s71497100 1.1 1001841
21:000s81496100 1.6 1001913